CZ-6A DEB, 54929

Orbit data source: Space-Track

CZ-6A DEB, 54929 is space debris in SSO originally from a launch on Fri, 11 Nov 2022 UTC launched from the Taiyaun Space Center, China (TSC). Debris objects in space refer to the collection of defunct objects orbiting the Earth. Examples of debris include non-operational satellites, rocket bodies, and fragments generated from explosions, collisions, or faulty payload assembly.

Loading next visibility...
Identifier
54929, 2022-151RS
Orbit
SSO
Country
Flag of CNCN / PRC
Related business
Manufacturer
SAST
Mission
Spacecraft
Bus & Motor
Unknown
Mass
Unknown
Launch date (UTC)
2022-11-11 (4 years ago)
Launch vehicle
Unknown
Launch site
Taiyaun Space Center, China (TSC)
Object type
Payload
Rocket body
Debris
Shape & HBR
Unknown shape, 0.1 m
Radar Cross Section
Small (<0.1 m²)

Expand to show TLE details & history
Last TLE update: 13 hours ago

TLE from 13 hours ago
0 CZ-6A DEB
1 54929U 22151RS  26238.15273742  .00009306  00000-0  14078-2 0  9992
2 54929  98.6185 309.2421 0068806  54.4525 306.3070 14.72848971198606
Epoch: 2026-08-26T03:39Z
TLE epoch observation values (Epoch: 2026-08-26T03:39:56.513Z)
Latitude
Longitude
-80.1532°
Altitude
626.547 km
Speed
7.561 km/s
True Right ascension
20h 36m 58s
True Declination
0° 00' 00"
Sunlit
Object was in full shadow at epoch
Visualization orbit readout
Latitude
Unknown
Longitude
Unknown
Altitude
Unknown
Speed
Unknown
Apparent Right ascension
Unknown
Apparent Declination
Unknown
Sunlit
N/A
Visualization observer readout
Local Sidereal Time
08:06:46
Azimuth
Unknown
Elevation
Unknown
Doppler factor
Unknown
Orbital elements
Apogee altitude
697.423 km
Perigee altitude
600.72 km
Semi-major axis
7,027.208 km
Eccentricity
0.00688
Inclination
98.6185°
RAAN
309.2421°
Arg. of periapsis
54.4525°
True anomaly
305.66838°
Mean anomaly
306.307°
Eccentric anomaly
305.98801°
Mean motion
3.68442 °/min
Orbital period
97.71 mins
BSTAR
0.0014078
Loading maneuver chart data...
Computing Atmospheric mass density...
Loading historical data...
Loading historical data...
Loading historical data...
Loading historical data...
Loading historical data...
Loading historical data...
Loading historical data...

Documentation

Showing up to 5 results
|